Regional Weather Roundup
Issued by NWS Pendleton, OR

Home | Current Version | Previous Version | Text Only | Print | Product List | Glossary On
Versions: 1 2 3 4 5 6 7 8 9 10 11 12 13 14 15 16 17 18 19 20 21 22 23 24 25 26 27 28 29 30 31 32 33 34 35 36 37 38 39 40 41 42 43 44 45 46 47 48 49 50
000
ASUS46 KPDT 162225
RWRPDT
PENDLETON REGIONAL WEATHER ROUNDUP
NATIONAL WEATHER SERVICE PENDLETON OREGON
300 PM PDT WED APR 16 2014

NOTE: FAIR INDICATES FEW OR NO CLOUDS BELOW 12,000 FEET WITH NO
SIGNIFICANT WEATHER AND/OR OBSTRUCTIONS TO VISIBILITY.

# INDICATES UNOFFICIAL STATION AND DATA

WAZ520-162310-
EAST SLOPES OF WASHINGTON CASCADES

CITY            SKY/WX      TMP DP  RH  WIND    PRES   REMARKS
#BUMPING DAM    N/A         45  N/A N/A S2      N/A
#CLE ELUM HS    N/A         50  39  66  N1      29.96S
#CLE ELUM 2NW   N/A         48  38  68  NW2     N/A
#CLE ELUM LAKE  N/A         48  39  71  CALM    30.01F
#CLIFFDEL 2NW   N/A         53  38  57  N3      N/A
#GLENWOOD       N/A         54  43  66  SW7     30.02F
#MANASTASH CYN  N/A         51  37  59  CALM    29.96S
#NELSON         N/A         49  42  77  CALM    30.03F
#NELSON 3SW     N/A         44  42  93  CALM    30.23S
#NILE           N/A         57  37  47  W6      29.31S
#RONALD 2NW     N/A         49  40  71  W2      29.88S
#TEANAWAY 4NE   N/A         51  41  68  W2      N/A
#TROUT LAKE HS  N/A         53  42  66  W3      N/A
#TROUT LAKE 1NE N/A         52  41  66  W9      30.05F
$$

WAZ521-162310-
SIMCOE HIGHLANDS

CITY            SKY/WX      TMP DP  RH  WIND    PRES   REMARKS
#BICKLETON HS   N/A         51  29  42  W8      30.03S
#CENTERVILLE 4W N/A         54  43  66  W14     29.79F
#CENTERVILLE 1SWN/A         51  40  66  W14     30.01F
#GOLDENDALE 1NE N/A         54  34  47  SW5     N/A
#GOLDENDALE 1S  N/A         53  41  64  W10     28.21F
#GOLDENDALE 5WNWN/A         52  40  63  W14     30.03F
#GOODNOE HILLS  N/A         60  39  46  NW21    29.96F
#LYLE 6NE       N/A         52  43  71  SW6     30.04F
$$

WAZ026-162310-
KITTITAS VALLEY

CITY            SKY/WX      TMP DP  RH  WIND    PRES   REMARKS
ELLENSBURG AP   CLOUDY      59  38  45  NW12    29.99S
#ELLENSBURG CWU N/A         58  39  49  NW7     29.94S
#ELLENSBURG 3NE N/A         55  41  59  W5      29.98F
#ELLENSBURG     N/A         57  42  57  W3      N/A
#ELLENSBURG 1E  N/A         58  36  44  CALM    N/A
#KITTITAS 4N    N/A         59  40  49  W5      30.15F
#KITTITAS 3S    N/A         57  42  57  W5      29.97S
#THORP 6N       N/A         49  40  71  N12     30.03R WCI 44
$$

WAZ027-162310-
YAKIMA VALLEY

CITY            SKY/WX      TMP DP  RH  WIND    PRES   REMARKS
YAKIMA AIRPORT  MOCLDY      62  37  39  S15     29.98F
YAKIMA-VAGABOND MOCLDY      60  36  41  SW12    29.99F
#COWICHE 1N     N/A         58  38  47  SE3     30.13S
#DONALD 2NE     N/A         66  29  25  SE3     30.30F
#GRANDVIEW      N/A         63  32  31  W2      29.99F
#MABTON         N/A         63  38  39  W2      29.98F
#MOXEE 2E       N/A         60  23  24  SW8     29.91F
#NACHES 2SW     N/A         57  39  51  CALM    30.01S
#OUTLOOK DOT    N/A         63  34  34  W2      N/A
#SELAH 8E       N/A         58  36  44  S10     N/A
#TERRACE HTS    N/A         60  38  44  S2      29.95S
#TOPPENISH      N/A         62  37  39  SW9     29.90S
#WAPATO 4NE     N/A         66  29  25  SE3     30.30F
#WEST VALLEY    N/A         58  37  45  S8      29.99S
#W YAKIMA       N/A         59  39  47  S5      29.98S
#WHITE SWAN 5E  N/A         60  40  47  S16G26  29.98F
#WILEY CITY 3W  N/A         60  34  37  S13     29.98F
$$

WAZ028-162310-
LOWER COLUMBIA BASIN...WASHINGTON

CITY            SKY/WX      TMP DP  RH  WIND    PRES   REMARKS
HANFORD         CLOUDY      66  32  28  W10     29.98F
PASCO           CLOUDY      65  36  34  S13     30.00F
PROSSER AWOS    N/A         64  36  35  SW5     30.01F
RICHLAND AWOS   CLOUDY      66  36  33  S13     29.99F
#BASIN CITY 5SW N/A         64  39  40  SE7     29.98F
#BENTON CITY    N/A         64  38  38  NW7     29.89F
#CONNELL 5NW    N/A         60  41  49  SW9     29.95F
#ELTOPIA        N/A         66  42  42  SW5     29.95F
#ELTOPIA 6NW    N/A         62  40  44  S10     28.95F
#KENNEWICK 3S   N/A         62  39  43  W7      30.00F
#PASCO-BROADMOORN/A         69  38  32  W1      29.89
#PATERSON       N/A         64  40  41  SW14    29.98F
#PROSSER        N/A         63  33  32  W5      29.98F
#SAGEMOOR 2W    N/A         64  41  43  S10     29.84F
#TOUCHET 2S     N/A         63  45  52  W6      29.98F
#WEST PASCO     N/A         67  41  39  S5      29.98F
$$

WAZ029-162310-
FOOTHILLS OF THE BLUES...WASHINGTON

CITY            SKY/WX      TMP DP  RH  WIND    PRES   REMARKS
WALLA WALLA AP  MOCLDY      62  37  39  SW12    30.02F
#COLLEGE PLACE  N/A         67  32  27  SW3     30.01F
#LOWDEN 2SE     N/A         64  39  40  W9      29.97F
#PLEASANT VIEW 1N/A         61  35  38  S8      30.04F
#PRESCOTT       N/A         61  39  44  SW5     30.01F
#SUDBURY        N/A         64  N/A N/A SW3     N/A
#WHITMAN COLLEGEN/A         60  36  41  W3      30.06F
#WAITSBURG 8N   N/A         61  27  27  S10     29.85F
#WALLA WALLA 5E N/A         61  36  39  S14     N/A
#WALLA WALLA U  N/A         63  37  38  SW3     30.00F
#WHITMAN MISSIONN/A         63  40  43  W3      30.01F
$$

WAZ030-162310-
BLUE MOUNTAINS...WASHINGTON

CITY            SKY/WX      TMP DP  RH  WIND    PRES   REMARKS
$$

ORZ009-041-WAZ024-162310-
COLUMBIA RIVER GORGE

CITY            SKY/WX      TMP DP  RH  WIND    PRES   REMARKS
HOOD RIVER AP   CLOUDY      57  43  59  W10     30.06F
THE DALLES AP   CLOUDY      61  42  50  NW14    30.05F
#ARLINGTON AIRPON/A         62  41  46  W16     25.09
#ARLINGTON HS   N/A         64  39  40  SW3     29.92F
#CELILO DOT     N/A         62  41  46  N6      N/A
#MARYHILL 2W    N/A         57  43  59  S7      N/A
#MOSIER 1S      N/A         57  36  45  NW9     30.09F
#MURDOCK        N/A         60  46  60  W12     30.06F
#RUFUS DOT      N/A         61  40  46  NW12    N/A

$$

ORZ510-162310-
NORTH CENTRAL OREGON

CITY            SKY/WX      TMP DP  RH  WIND    PRES   REMARKS
#CHENOWITH 1W   N/A         49  40  71  NW28    N/A    WCI 41
#COW CYN RST AREN/A         55  -56  0  NW6     N/A
#GRASS VALLEY   N/A         51  40  66  W2      N/A
#GRASS VALLEY 1SN/A         53  41  64  N5      30.05S
#KENT DOT       N/A         56  34  43  NW7     N/A
#MAUPIN SCHOOL  N/A         61  40  46  N6      30.03F
#MORO SCHOOL    N/A         53  44  71  NW9     30.04F
#SHANIKO 5WSW   N/A         54  32  43  W7      N/A
#SHANIKO 4NW    N/A         52  35  52  NW8     30.03S
#TYGH VALLEY 2NEN/A         60  44  55  N7      30.02S
#WAPANITIA AIRPON/A         58  38  47  W7      30.04S
#WASCO DOT      N/A         59  42  53  W7      N/A
#WASCO 5NE      N/A         56  44  64  W6      30.03F
$$

ORZ511-162310-
CENTRAL OREGON

CITY            SKY/WX      TMP DP  RH  WIND    PRES   REMARKS
BEND AIRPORT    PTCLDY      59  32  36  N10     30.00F
MADRAS AIRPORT  PTCLDY      59  34  39  NE5     30.03F
REDMOND AIRPORT MOCLDY      61  31  32  N5      30.00F
#BEND 6E        N/A         58  28  32  CALM    29.95F
#BEND 1SW       N/A         62  33  34  CALM    N/A
#BEND-AWBREY    N/A         61  37  41  SW3     30.00F
#BEND-KIM LN    N/A         62  36  38  N2      29.97F
#CROOKED RVR RANN/A         60  36  41  W10G29  30.00F
#CULVER         N/A         61  35  38  NE5     29.97F
#LAKE BILLY CHINN/A         59   7  12  N3      30.06S
#POWELL BUTTE   N/A         62  38  41  CALM    29.66F
#PRINEVILLE AIR N/A         57  34  42  CALM    29.98F
#PRINEVILLE 3N  N/A         58  35  42  CALM    29.95F


ORZ509-162310-
EAST SLOPES OF OREGON CASCADES

CITY            SKY/WX      TMP DP  RH  WIND    PRES   REMARKS
#BLUE BOX PASS  N/A         45  -5  12  W2      N/A
#CAMP SHERMAN   N/A         58  36  44  VRB2    30.03R
#LA PINE DOT    N/A         62  26  25  W10     N/A
#LA PINE 4NW    N/A         57  34  42  NW2     30.05S
#LAVA BUTTE DOT N/A         56  30  37  W1      N/A
#SISTERS AIRPOR N/A         57  41  55  N7      30.03S
#SISTERS ODOT   N/A         57  N/A N/A CALM    N/A
#SISTERS 3N     N/A         57  31  37  N3      30.07S
#SUNRIVER       N/A         60  34  37  SW3     29.88F
#SUNRIVER AP    N/A         58  33  39  CALM    29.96F
#SUTTLE LK DOT  N/A         48  36  63  W16G29  N/A    WCI 42
#TUMALO 3W      N/A         57  34  42  NW8     29.90F
#WANOGA BUTTE D N/A         46  28  49  NE6     N/A

$$

ORZ044-162310-
LOWER COLUMBIA BASIN...OREGON

CITY            SKY/WX      TMP DP  RH  WIND    PRES   REMARKS
HERMISTON       CLOUDY      67  36  32  SW13    30.00F
#BOARDMAN SCHOOLN/A         66  36  33  NW3     29.98F
#BOARDMAN 3W    N/A         69  42  37  W13     29.74R
#BOARDMAN 8SW   N/A         64  41  43  W13     30.00F
#IONE SCHOOL    N/A         61  36  39  S2      30.00F
#IRRIGON 4NW    N/A         68  40  36  SW15    N/A
#UMATILLA       N/A         67  38  34  SW7     29.97F
$$

ORZ507-162310-
NORTHERN FOOTHILLS OF THE BLUES

CITY            SKY/WX      TMP DP  RH  WIND    PRES   REMARKS
PENDLETON AIRPT MOCLDY      60  32  35  SW9     30.00F
#ADAMS 3WNW     N/A         59  37  44  W7      30.02F
#ATHENA         N/A         59  35  40  S3      30.04F
#HELIX SCHOOL   N/A         59  33  37  SW6     30.01F
#HELIX 3N       N/A         57  39  51  SW10    29.98F
#M-F FERNDALE   N/A         65  38  37  CALM    30.00F
#M-F GROVE ELEM N/A         62  31  31  SW5     30.00F
#M-FREEWATER 5SEN/A         62  38  41  SW9     30.01F
#PDT AQUATIC CTRN/A         64  36  35  W2      30.01S
#PENDLETON DNTN N/A         64  35  34  W2      29.98S
#PDT SUNRIDGE   N/A         62  36  38  SW7     30.02F
#PILOT ROCK     N/A         60  32  35  NE1     30.02F
#TUTUILLA       N/A         57  34  42  E2      29.94F
#UMAPINE 2E     N/A         62  40  44  W6      29.94F
#WESTON SCHOOL  N/A         57  32  38  NW2     30.05F

$$

ORZ508-162310-
SOUTHERN FOOTHILLS OF THE BLUES

CITY            SKY/WX      TMP DP  RH  WIND    PRES   REMARKS
LEXINGTON       MOCLDY      63  36  36  NW9     30.02F
#AJAX           N/A         56  39  53  N7      30.04S
#CONDON SCHOOL  N/A         55  35  47  SW6     29.98F
#CONDON 5W      N/A         53  33  46  SW6     29.99F
#FOSSIL SCHOOL  N/A         57  35  43  CALM    29.98F
#HEPPNER 4NE    N/A         56  34  43  W7      30.02F
#LEXINGTON 2SE  N/A         63  36  36  W2      29.97F
#OLEX 4N        N/A         60  40  47  W10     30.02F
#RUGGS 5NE      N/A         62  37  39  W1      30.27S
#RUGGS 2SW      N/A         56  33  42  N5      30.07F

$$

ORZ502-503-162310-
BLUE MOUNTAINS

CITY            SKY/WX      TMP DP  RH  WIND    PRES   REMARKS
MEACHAM         MOCLDY      50  31  48  VRB3    30.02F
#BATTLE MTN DOT N/A         46  35  65  SE2     N/A
#HARDMAN 10S    N/A         50  31  48  CALM    30.07F
#HEPPNER 15SE   N/A         50  34  54  N5      29.93F
#LADD CYN SMT   N/A         51  27  39  CALM    N/A
#LADD CREEK ODOTN/A         53  36  52  NE3     N/A
#LONG CREEK HS  N/A         53  32  45  W5      29.97F
#N POWDER DOT   N/A         56  33  42  CALM    N/A
#TOLLGATE       N/A         42  32  67  SW5     29.97F
#TOLLGATE 9W    N/A         49  36  61  SW5     N/A
#TROY SCHOOL    N/A         57  38  49  N3      29.86F
#UKIAH          N/A         50  34  54  N3      30.09F
#WESTON 4E      N/A         52  35  52  SW6     29.99F
$$

ORZ505-162310-
JOHN DAY BASIN

CITY            SKY/WX      TMP DP  RH  WIND    PRES   REMARKS
JOHN DAY        MOCLDY      57  28  33  SW3     30.01
#JOHN DAY KJDY  N/A         62  23  22  CALM    29.92F
#DAYVILLE SCHOOLN/A         62  29  28  N2      29.96F
#MONUMENT HS    N/A         62  28  27  NW6     29.95F
#MT. VERNON 5SE N/A         54  29  38  W2      29.97F
#SPRAY SCHOOL   N/A         65  N/A N/A CALM    N/A
$$

ORZ506-162310-
OCHOCO AND JOHN DAY HIGHLANDS

CITY            SKY/WX      TMP DP  RH  WIND    PRES   REMARKS
#ANTONE         N/A         32  N/A N/A CALM    N/A
#BUCK CREEK DOT N/A         57  35  43  NW6     N/A
#HORSE RIDGE DO N/A         56  28  34  N10     N/A
#KEYES SMT DOT  N/A         55  31  40  SW15    N/A
#PAULINA SCHOOL N/A         62  28  27  E5      29.99F
#PINE MTN OBS   N/A         46  28  49  NW7     N/A
#PRAIRIE CITY   N/A         54  26  34  SW1     29.99S
#SENECA 9NW     N/A         52  28  39  CALM    30.00F
$$

ORZ049-162310-
GRANDE RONDE VALLEY

CITY            SKY/WX      TMP DP  RH  WIND    PRES   REMARKS
LA GRANDE       MOCLDY      55  30  38  CALM    30.00F
#COVE           N/A         56  35  45  W1      29.94F
#COVE SCHOOL    N/A         56  34  43  W1      29.99F
#COVE 6NW       N/A         57  34  42  SW2     30.08F
#ELGIN 3N       N/A         54  32  43  S9      29.74F
#ELGIN 1E       N/A         55  34  45  CALM    N/A
#IMBLER SCHOOL  N/A         53  32  45  CALM    29.97F
#ISLAND CITY 4N N/A         55  38  53  N2      29.98F
#LADD CYN DOT   N/A         54  32  43  NE3     N/A
#LA GRANDE ELEM N/A         54  35  48  SE6     29.99F
#UNION 1S       N/A         56  33  42  W2      29.96F
$$

ORZ050-162310-
WALLOWA COUNTY

CITY            SKY/WX      TMP DP  RH  WIND    PRES   REMARKS
JOSEPH AIRPORT  CLOUDY      52  25  35  CALM    30.01F
#ENTERPRISE HS  N/A         54  31  41  W1      29.98F
#IMNAHA SCHOOL  N/A         59  23  25  CALM    29.88F
#JOSEPH 3N      N/A         51  30  44  W3      30.02F
#LOSTINE        N/A         53  33  46  N3      29.84F
#MT HOWARD 8000 N/A         33  23  66  W3      30.01S
#PROMISE 1S     N/A         48  34  58  E3      30.13F
#SHEEP RDG 7000 N/A         35  22  59  CALM    30.15F
#WALLOWA SCHOOL N/A         55  33  43  W2      30.97F



$$



USA.gov is the U.S. government's official web portal to all federal, state and local government web resources and services.